SCP
3 3 3 3 4 4 4 4 4 3 2 2 3 3 2 2 2 3 3 3 2 2 1 1 1 1 1 1 1 1 1 1 1 1 1 1 1 1 1 1 1 1 1
3 3 3 3 4 4 4 4 3 3 2 2 2 2 2 2 2 2 3 2 2 1 1 1 1 1 1 1 1 1 1 1 1 1 1 1 1 1 1 1 1 1 1
2 2 2 3 3 4 4 4 3 3 2 2 2 2 1 1 1 2 2 1 1 1 1 1 1 1 1 1 1 1 1 1 1 1 1 0 0 1 1 1 1 1 1
2 2 2 2 3 4 5 5 4 3 2 2 2 2 1 1 1 1 1 1 1 1 1 1 1 1 0 0 0 1 1 1 1 1 1 0 0 0 0 0 0 1 1
2 2 2 2 3 4 6 6 4 3 2 2 2 2 1 1 1 1 1 0 0 0 0 0 0 0 0 0 0 0 0 0 0 0 0 0 0 0 0 0 0 0 0
2 2 2 1 2 3 5 6 4 3 2 2 1 1 1 1 1 1 0 0 0 0 0 0 0 0 0 0 0 0 0 0 0 0 0 0 0 0 0 0 1 1 0
3 2 2 1 1 2 3 3 3 2 2 1 1 1 1 1 0 0 0 0 0 0 0 0 0 0 0 0 0 0 0 0 0 0 0 0 0 0 0 0 0 0 0
3 2 2 1 1 2 2 2 1 2 1 1 1 1 1 0 0 0 0 0 0 0 0 0 0 0 0 0 0 0 0 0 0 0 0 0 0 0 0 0 0 0 0
2 2 1 1 1 1 1 1 1 1 1 1 1 1 1 0 0 0 0 0 0 0 0 0 0 0 0 0 0 0 0 0 0 0 0 0 0 0 0 0 0 0 0
2 2 1 1 1 1 1 1 0 1 1 1 1 0 0 0 0 0 0 0 0 0 0 0 0 0 0 0 0 0 0 0 0 0 0 0 0 0 0 0 0 0 0
2 2 1 1 1 1 1 0 0 0 0 0 0 0 0 0 0 0 0 0 0 0 0 0 0 0 0 0 0 0 0 0 0 0 0 0 0 0 0 0 0 0 0
2 1 1 1 1 1 1 0 0 0 0 0 0 0 0 0 0 0 0 0 0 0 0 0 0 0 0 0 0 0 0 0 0 0 0 0 0 0 0 0 0 0 0
1 1 1 1 1 1 1 1 0 0 0 0 0 0 0 0 0 0 0 0 0 0 0 0 0 0 0 0 0 0 0 0 0 0 0 0 0 0 0 0 0 0 0
1 1 1 1 1 1 1 1 1 0 0 0 0 0 0 0 0 0 0 0 0 0 0 0 0 0 0 0 0 0 0 0 0 0 0 0 0 0 0 0 0 0 0
1 1 2 2 2 2 2 1 1 1 1 0 0 0 0 0 0 0 0 0 0 0 0 0 0 0 0 0 0 0 0 0 0 0 0 0 0 0 0 0 0 0 0
1 1 2 2 2 2 2 2 1 1 1 1 1 1 0 0 0 0 0 0 0 0 0 0 0 0 0 0 0 0 0 0 0 1 1 0 0 0 0 0 0 0 0
1 1 2 2 2 2 2 2 1 1 1 1 1 0 0 0 0 0 0 0 1 1 1 0 0 0 0 0 0 0 0 0 0 1 1 1 1 0 0 0 0 0 0
1 1 2 2 2 2 2 2 1 1 1 1 0 0 0 0 0 0 0 1 1 1 1 1 1 1 1 0 0 0 0 0 0 1 1 1 1 1 0 0 0 0 0
1 1 2 2 2 2 2 1 1 1 1 1 0 0 1 1 1 1 1 1 1 1 1 1 1 1 1 0 0 0 0 0 1 1 1 1 1 1 0 0 1 1 1
1 2 2 2 2 2 2 1 1 1 1 1 1 1 1 1 1 1 1 1 1 1 1 1 0 1 1 0 0 0 0 0 1 1 1 1 1 1 0 1 1 1 1
2 2 2 2 2 1 1 1 1 1 1 1 1 1 1 1 1 1 1 1 1 1 1 1 0 1 1 0 0 0 0 0 1 1 1 1 1 0 0 0 1 1 1
2 2 2 2 2 1 2 2 1 1 1 1 1 1 1 1 1 1 1 1 1 1 1 1 1 1 1 0 0 0 0 0 0 1 1 1 0 0 0 0 0 0 0
2 2 2 2 2 2 2 2 2 2 1 1 1 1 1 1 1 1 1 1 1 1 0 0 0 1 1 1 1 0 0 0 0 1 1 0 0 0 0 0 0 0 0
2 2 2 2 2 2 2 2 2 2 1 1 1 1 1 1 1 1 1 1 1 1 0 0 1 1 1 1 1 1 0 0 0 0 0 0 0 0 0 0 0 1 1
2 2 2 3 3 3 2 2 2 2 1 1 1 1 1 1 1 1 1 1 1 1 0 0 0 1 1 1 0 0 0 0 0 0 0 0 0 0 0 0 1 1 1
2 2 2 3 3 3 2 3 2 2 1 1 0 0 0 1 1 1 1 1 0 0 0 0 0 0 0 0 0 0 0 0 0 0 0 1 1 1 1 1 1 1 1
Wind_Speed
9 9 9 9 9 8 9 9 8 8 6 4 4 4 4 4 4 3 4 3 3 2 0 1 1 1 0 1 1 2 2 2 2 4 4 4 5 4 4 4 4 6 6
10 10 10 9 10 9 9 9 9 7 6 4 3 2 3 3 4 4 4 3 3 2 2 2 1 1 0 0 1 2 3 2 1 4 5 4 4 4 2 2 3 3 4
11 11 10 10 10 9 9 7 7 7 6 6 5 5 4 4 5 5 4 3 3 2 3 2 2 1 1 2 1 2 3 3 2 2 5 4 3 2 2 1 2 2 3
12 12 11 11 10 10 9 8 8 7 6 6 5 6 4 4 4 3 3 4 3 3 3 2 2 2 2 2 1 2 2 3 3 1 2 4 5 5 2 2 2 1 3
14 13 13 12 11 10 9 9 8 8 7 5 6 5 4 4 4 3 5 3 4 3 3 3 2 1 1 3 3 2 3 3 4 3 2 2 3 5 6 5 3 3 3
14 13 13 12 11 11 10 9 9 8 7 6 6 4 5 4 4 4 4 3 3 3 3 2 2 1 2 1 1 2 2 3 4 4 4 4 4 4 5 6 6 5 4
15 14 14 14 12 12 11 10 10 9 8 7 6 6 6 5 5 4 4 3 3 3 3 2 1 1 1 1 1 1 2 2 3 4 4 4 4 5 5 7 7 7 6
16 15 15 14 14 13 12 11 10 9 8 8 7 6 6 5 4 3 2 2 1 2 3 1 1 1 1 1 1 2 1 2 3 4 4 5 4 5 5 6 7 8 7
17 16 16 15 14 14 13 12 11 10 9 8 8 7 6 4 4 4 3 3 2 2 2 1 1 0 1 1 2 2 2 2 4 4 3 4 4 4 5 5 6 8 9
17 17 16 15 14 14 13 12 12 11 10 9 8 7 6 5 5 4 3 2 2 2 2 2 1 1 1 2 3 3 1 3 3 3 4 5 5 4 5 5 6 6 8
18 17 16 15 14 14 14 13 12 12 10 9 8 7 7 6 6 5 5 4 3 3 3 2 2 2 2 2 2 4 3 4 4 4 4 5 6 6 6 5 6 6 7
18 17 17 16 15 15 14 14 13 12 11 10 9 8 7 7 7 6 5 5 5 4 4 3 3 3 3 3 3 4 4 4 4 5 5 6 5 5 7 6 7 7 7
17 17 16 16 15 15 14 14 13 12 12 11 10 9 8 8 7 6 6 6 5 5 4 4 4 3 3 4 4 4 5 5 5 6 6 6 6 7 6 7 8 7 7
17 17 16 16 15 15 14 14 13 13 12 11 10 10 9 8 8 7 7 6 6 5 5 4 4 4 4 5 5 5 5 6 6 6 7 7 7 7 8 7 8 8 8
18 18 17 16 16 15 14 14 13 13 12 12 11 10 9 9 8 7 7 6 6 6 5 5 5 5 5 4 4 5 6 6 7 7 8 8 7 6 7 8 8 8 8
20 19 18 17 17 16 15 14 14 13 13 12 11 10 10 9 9 8 8 7 7 6 6 6 6 6 5 3 2 6 8 8 8 8 8 8 9 10 12 13 12 11 11
20 20 19 18 17 17 16 15 14 14 13 13 12 11 10 10 9 9 8 8 7 7 7 7 7 7 5 5 6 8 9 10 9 9 8 8 7 6 9 10 14 15 17
19 19 18 17 16 16 15 14 14 14 14 13 12 11 11 10 9 9 8 8 7 7 7 7 8 8 7 7 8 8 10 11 10 10 10 10 10 9 8 10 11 11 11
16 16 17 17 16 16 16 15 14 14 14 14 13 12 11 11 10 10 9 8 7 7 8 7 8 9 8 8 9 9 9 9 10 10 10 10 11 7 6 10 12 13 12
13 14 15 15 15 15 15 15 15 15 14 14 13 12 11 11 11 10 9 8 7 8 8 8 8 9 10 7 9 9 9 9 9 9 10 11 12 8 8 11 12 13 12
12 13 14 14 14 15 15 16 15 14 13 12 12 11 11 11 10 9 8 8 8 8 8 8 8 9 10 9 10 11 9 10 10 9 9 7 11 12 12 11 12 13 12
12 13 12 12 12 14 15 15 14 13 12 12 11 11 10 10 9 9 8 8 8 8 9 9 9 9 9 9 9 12 13 12 11 11 10 8 4 9 11 11 13 12 10
11 12 12 12 12 13 14 14 12 12 12 12 11 10 10 9 8 9 9 8 8 8 8 8 8 7 7 6 11 13 14 14 11 11 11 10 7 8 11 16 15 12 11
10 11 12 12 12 12 13 12 12 12 12 12 10 9 9 9 9 8 8 8 8 8 7 7 8 8 7 7 6 6 8 12 12 11 11 13 15 14 13 11 11 11 11
8 9 10 11 12 12 11 11 12 12 12 10 9 9 9 8 7 8 7 8 7 6 7 8 8 8 9 6 5 7 9 9 8 8 9 10 10 10 9 9 9 8 9
8 8 9 9 10 11 10 10 10 11 10 9 9 8 7 6 7 7 7 9 10 8 9 11 11 10 10 11 10 10 10 10 8 8 11 12 11 11 10 9 9 8 9
Wind_Direction
146 146 151 153 151 151 154 158 157 152 156 158 167 160 152 147 140 132 120 130 121 114 114 99 112 296 16 340 312 289 257 274 299 277 264 243 236 242 246 244 252 247 250
151 152 153 158 157 156 158 157 156 152 162 149 146 139 132 143 126 117 110 112 109 121 141 65 98 67 82 79 338 302 293 289 299 300 290 270 224 205 221 227 232 252 253
163 161 159 160 157 158 159 152 147 147 149 151 151 141 148 160 152 143 130 108 108 105 72 82 51 45 335 58 3 315 307 308 293 309 308 304 313 328 180 214 237 264 273
171 167 166 168 163 158 151 144 145 144 146 157 157 166 177 167 137 144 121 121 110 108 106 90 72 30 26 52 313 40 318 301 299 257 285 309 331 306 293 214 194 231 260
174 170 169 168 163 158 152 148 144 144 146 147 147 172 166 142 139 140 125 138 119 117 107 93 75 50 29 34 13 11 328 312 315 316 305 290 263 264 285 290 292 273 267
171 169 166 160 159 157 154 150 145 144 146 150 153 165 146 146 149 157 149 168 143 133 109 101 75 51 38 42 5 338 322 335 334 316 308 301 301 305 299 295 290 290 287
172 171 169 166 164 163 161 156 152 150 151 153 156 156 153 159 165 174 161 188 161 145 114 85 64 41 43 9 344 309 338 322 316 299 303 307 304 306 302 298 299 299 290
177 176 174 173 172 170 167 164 160 156 156 156 153 153 161 174 156 161 163 166 156 108 105 115 100 67 346 315 330 285 295 305 295 296 309 296 295 303 298 298 302 297 291
179 179 179 179 178 175 174 171 165 163 164 162 157 159 166 161 144 153 181 155 138 140 145 166 169 196 265 304 283 310 303 298 287 287 272 282 296 287 293 292 292 296 298
181 181 182 182 181 177 175 174 173 171 169 168 170 163 166 164 167 180 160 145 154 150 180 199 209 224 238 255 279 273 286 288 284 293 307 298 294 303 289 287 287 285 288
183 182 182 181 181 179 176 176 177 175 174 174 172 165 168 169 176 179 176 175 179 180 197 204 216 223 234 247 264 287 283 277 287 284 280 281 297 295 297 288 283 281 282
184 182 180 179 180 181 179 178 179 179 178 176 175 175 174 179 185 182 181 183 187 196 201 210 219 231 236 245 260 273 279 278 282 285 286 283 281 281 280 289 287 285 287
184 182 180 180 183 182 181 180 182 181 180 177 179 178 181 185 190 183 183 191 197 204 208 216 229 241 249 250 259 270 276 278 279 280 280 280 282 281 286 286 285 285 279
184 184 182 183 184 183 182 182 183 182 179 180 184 182 186 187 189 189 189 196 203 209 214 224 237 246 251 250 255 262 269 273 274 274 273 272 274 276 283 278 274 276 282
187 188 186 185 184 183 182 183 182 180 179 182 187 186 187 188 192 194 198 200 207 217 220 231 236 240 243 245 263 272 268 270 273 271 267 266 267 280 277 285 292 288 282
190 190 189 186 186 185 184 182 181 179 180 186 188 185 188 190 195 199 202 204 212 223 226 233 241 246 251 135 215 268 278 275 273 274 274 269 242 235 231 244 259 272 277
192 191 190 189 188 187 184 183 181 178 182 188 188 186 191 196 199 203 204 210 217 221 228 236 242 251 245 198 220 237 265 271 273 274 273 273 275 253 259 238 228 240 241
193 191 190 187 186 184 182 182 178 179 183 187 189 188 194 199 200 205 211 216 221 225 232 240 248 253 247 209 223 232 251 264 268 267 266 268 274 268 267 272 268 265 254
193 189 188 184 180 179 177 177 178 181 186 189 191 191 194 198 201 207 213 218 223 230 235 239 247 254 254 220 220 233 262 261 263 264 263 262 266 252 227 258 267 270 271
188 185 182 178 176 175 172 176 181 184 190 192 192 191 194 200 205 210 215 218 224 235 244 244 247 253 259 235 215 222 260 268 270 265 259 242 240 249 221 250 262 268 274
177 174 173 175 175 171 172 181 184 189 191 188 188 190 195 202 208 212 216 224 230 238 247 255 255 253 256 247 224 218 250 269 274 277 275 270 199 219 227 239 257 265 278
166 167 168 170 169 170 175 183 187 186 182 182 186 191 196 205 205 211 218 225 234 239 243 248 256 255 247 242 233 216 226 254 271 274 278 285 199 218 231 236 248 255 263
159 162 162 161 163 171 179 184 182 176 175 180 187 192 197 206 213 214 219 225 228 243 250 253 259 262 263 242 218 221 225 229 245 267 279 289 271 251 245 239 239 242 246
156 159 159 161 164 171 179 180 171 171 174 180 184 191 200 207 210 222 228 234 239 244 252 260 266 271 269 270 264 245 231 222 232 253 262 247 243 242 259 263 234 234 246
152 157 161 164 164 167 172 173 168 170 175 178 186 195 203 210 215 219 233 242 249 260 266 274 279 280 281 296 335 304 293 298 312 307 275 269 265 256 251 253 257 255 249
145 151 158 159 159 162 165 166 164 169 174 180 189 198 207 206 218 225 229 221 236 242 239 247 264 279 279 288 289 281 275 274 278 276 267 269 269 269 270 270 267 259 255